When you browse on this site, cookies collect data to enhance your experience and personalize the content and advertising you see.
Visit our Privacy Policy to learn more. By continuing to use the site, you agree to this use of cookies and data.

Hourly Weather Gaborone

Today, 13 August, Thursday

Time Temperature Precipitation Wind Pressure Humidity
00:00 +15°C° 0 mm 2 mps 678 mmHg 16%
01:00 +14°C° 0 mm 2 mps 678 mmHg 15%
02:00 +13°C° 0 mm 3 mps 678 mmHg 15%
03:00 +13°C° 0 mm 2 mps 678 mmHg 14%
04:00 +12°C° 0 mm 2 mps 678 mmHg 13%
05:00 +12°C° 0 mm 2 mps 678 mmHg 13%
06:00 +12°C° 0 mm 2 mps 679 mmHg 12%
07:00 +13°C° 0 mm 2 mps 679 mmHg 11%
08:00 +14°C° 0 mm 2 mps 680 mmHg 11%
09:00 +17°C° 0 mm 3 mps 681 mmHg 10%
10:00 +20°C° 0 mm 3 mps 681 mmHg 9%
11:00 +23°C° 0 mm 4 mps 682 mmHg 8%
12:00 +26°C° 0 mm 3 mps 682 mmHg 7%
13:00 +27°C° 0 mm 3 mps 681 mmHg 5%
14:00 +29°C° 0 mm 2 mps 681 mmHg 4%
15:00 +29°C° 0 mm 2 mps 681 mmHg 4%
16:00 +28°C° 0 mm 2 mps 680 mmHg 4%
17:00 +28°C° 0 mm 2 mps 680 mmHg 4%
18:00 +24°C° 0 mm 2 mps 680 mmHg 6%
19:00 +20°C° 0 mm 2 mps 680 mmHg 8%
20:00 +16°C° 0 mm 2 mps 679 mmHg 10%
21:00 +15°C° 0 mm 2 mps 679 mmHg 12%
22:00 +14°C° 0 mm 2 mps 679 mmHg 14%
23:00 +13°C° 0 mm 1 mps 679 mmHg 16%

Tomorrow, 14 August, Friday

Time Temperature Precipitation Wind Pressure Humidity
00:00 +12°C° 0 mm 1 mps 679 mmHg 18%
01:00 +12°C° 0 mm 1 mps 679 mmHg 20%
02:00 +11°C° 0 mm 1 mps 679 mmHg 22%
03:00 +11°C° 0 mm 1 mps 679 mmHg 24%
04:00 +10°C° 0 mm 1 mps 679 mmHg 25%
05:00 +10°C° 0 mm 1 mps 679 mmHg 27%
06:00 +9°C° 0 mm 2 mps 679 mmHg 27%
07:00 +10°C° 0 mm 2 mps 680 mmHg 26%
08:00 +11°C° 0 mm 3 mps 680 mmHg 25%
09:00 +14°C° 0 mm 3 mps 681 mmHg 27%
10:00 +18°C° 0 mm 4 mps 681 mmHg 29%
11:00 +21°C° 0 mm 5 mps 682 mmHg 30%
12:00 +22°C° 0 mm 5 mps 681 mmHg 26%
13:00 +25°C° 0 mm 4 mps 680 mmHg 22%
14:00 +27°C° 0 mm 4 mps 680 mmHg 18%
15:00 +26°C° 0 mm 4 mps 679 mmHg 18%
16:00 +26°C° 0 mm 4 mps 679 mmHg 19%
17:00 +26°C° 0 mm 4 mps 678 mmHg 20%
18:00 +22°C° 0 mm 4 mps 678 mmHg 30%
19:00 +19°C° 0 mm 3 mps 677 mmHg 40%
20:00 +16°C° 0 mm 3 mps 677 mmHg 50%
21:00 +14°C° 0 mm 3 mps 677 mmHg 57%
22:00 +12°C° 0 mm 3 mps 677 mmHg 64%
23:00 +12°C° 0 mm 2 mps 677 mmHg 71%

Day after tomorrow, 15 August, Saturday

Time Temperature Precipitation Wind Pressure Humidity
00:00 +10°C° 0 mm 2 mps 676 mmHg 76%
01:00 +10°C° 0 mm 2 mps 676 mmHg 81%
02:00 +10°C° 0 mm 1 mps 675 mmHg 86%
03:00 +10°C° 0 mm 1 mps 675 mmHg 88%
04:00 +9°C° 0 mm 1 mps 674 mmHg 90%
05:00 +9°C° 0 mm 1 mps 674 mmHg 92%
06:00 +9°C° 0 mm 2 mps 674 mmHg 88%
07:00 +9°C° 0 mm 2 mps 675 mmHg 85%
08:00 +10°C° 0 mm 2 mps 675 mmHg 81%
09:00 +14°C° 0 mm 3 mps 676 mmHg 65%
10:00 +19°C° 0 mm 3 mps 676 mmHg 49%
11:00 +24°C° 0 mm 3 mps 677 mmHg 32%
12:00 +27°C° 0 mm 5 mps 676 mmHg 25%
13:00 +30°C° 0 mm 6 mps 676 mmHg 17%
14:00 +33°C° 0 mm 7 mps 675 mmHg 9%
15:00 +33°C° 0 mm 7 mps 675 mmHg 10%
16:00 +32°C° 0 mm 7 mps 674 mmHg 10%
17:00 +32°C° 0 mm 6 mps 674 mmHg 10%
18:00 +28°C° 0 mm 5 mps 673 mmHg 13%
19:00 +25°C° 0 mm 4 mps 673 mmHg 15%
20:00 +21°C° 0 mm 2 mps 673 mmHg 17%
21:00 +19°C° 0 mm 2 mps 673 mmHg 18%
22:00 +18°C° 0 mm 2 mps 673 mmHg 19%
23:00 +17°C° 0 mm 3 mps 673 mmHg 20%

16 August, Sunday

Time Temperature Precipitation Wind Pressure Humidity
00:00 +15°C° 0 mm 2 mps 673 mmHg 22%
01:00 +14°C° 0 mm 2 mps 673 mmHg 24%
02:00 +13°C° 0 mm 1 mps 673 mmHg 25%
03:00 +13°C° 0 mm 2 mps 673 mmHg 25%
04:00 +12°C° 0 mm 2 mps 673 mmHg 25%
05:00 +10°C° 0 mm 2 mps 673 mmHg 25%
06:00 +12°C° 0 mm 2 mps 673 mmHg 24%
07:00 +13°C° 0 mm 2 mps 674 mmHg 22%
08:00 +14°C° 0 mm 2 mps 675 mmHg 20%
09:00 +17°C° 0 mm 3 mps 676 mmHg 17%
10:00 +21°C° 0 mm 3 mps 676 mmHg 13%
11:00 +25°C° 0 mm 3 mps 677 mmHg 10%
12:00 +26°C° 0 mm 4 mps 677 mmHg 9%
13:00 +27°C° 0 mm 5 mps 676 mmHg 9%
14:00 +29°C° 0 mm 5 mps 676 mmHg 8%
15:00 +27°C° 0 mm 5 mps 676 mmHg 9%
16:00 +26°C° 0 mm 5 mps 676 mmHg 10%
17:00 +24°C° 0 mm 6 mps 676 mmHg 11%
18:00 +21°C° 0 mm 5 mps 676 mmHg 17%
19:00 +18°C° 0 mm 4 mps 676 mmHg 22%
20:00 +14°C° 0 mm 3 mps 676 mmHg 27%
21:00 +13°C° 0 mm 3 mps 676 mmHg 30%
22:00 +12°C° 0 mm 3 mps 676 mmHg 33%
23:00 +12°C° 0 mm 2 mps 676 mmHg 36%

17 August, Monday

Time Temperature Precipitation Wind Pressure Humidity
00:00 +10°C° 0 mm 2 mps 676 mmHg 37%
01:00 +9°C° 0 mm 2 mps 676 mmHg 38%
02:00 +9°C° 0 mm 1 mps 675 mmHg 40%
03:00 +9°C° 0 mm 1 mps 675 mmHg 41%
04:00 +8°C° 0 mm 1 mps 675 mmHg 42%
05:00 +8°C° 0 mm 1 mps 675 mmHg 43%
06:00 +9°C° 0 mm 1 mps 675 mmHg 40%
07:00 +10°C° 0 mm 1 mps 676 mmHg 37%
08:00 +10°C° 0 mm 2 mps 676 mmHg 34%
09:00 +13°C° 0 mm 3 mps 677 mmHg 37%
10:00 +16°C° 0 mm 5 mps 677 mmHg 41%
11:00 +21°C° 0 mm 7 mps 678 mmHg 44%
12:00 +21°C° 0 mm 7 mps 677 mmHg 44%
13:00 +22°C° 0 mm 6 mps 676 mmHg 43%
14:00 +23°C° 0 mm 6 mps 675 mmHg 43%
15:00 +23°C° 0 mm 6 mps 675 mmHg 41%
16:00 +23°C° 0 mm 5 mps 675 mmHg 40%
17:00 +23°C° 0 mm 5 mps 674 mmHg 38%
18:00 +21°C° 0 mm 5 mps 675 mmHg 45%
19:00 +20°C° 0 mm 5 mps 675 mmHg 52%
20:00 +17°C° 0 mm 5 mps 675 mmHg 58%
21:00 +15°C° 0 mm 5 mps 675 mmHg 67%
22:00 +14°C° 0 mm 4 mps 675 mmHg 76%
23:00 +12°C° 0 mm 4 mps 675 mmHg 85%

18 August, Tuesday

Time Temperature Precipitation Wind Pressure Humidity
00:00 +13°C° 0 mm 4 mps 675 mmHg 84%
01:00 +13°C° 0 mm 5 mps 675 mmHg 83%
02:00 +13°C° 0 mm 6 mps 675 mmHg 82%
03:00 +13°C° 0 mm 5 mps 675 mmHg 82%
04:00 +13°C° 0 mm 4 mps 675 mmHg 82%
05:00 +13°C° 0 mm 3 mps 675 mmHg 81%
06:00 +13°C° 0 mm 3 mps 676 mmHg 81%
07:00 +15°C° 0 mm 2 mps 677 mmHg 80%
08:00 +15°C° 0 mm 2 mps 677 mmHg 80%
09:00 +16°C° 0 mm 2 mps 678 mmHg 75%
10:00 +16°C° 0 mm 3 mps 678 mmHg 70%
11:00 +17°C° 0 mm 3 mps 679 mmHg 66%
12:00 +18°C° 0 mm 3 mps 678 mmHg 63%
13:00 +19°C° 0 mm 3 mps 678 mmHg 59%
14:00 +19°C° 0 mm 3 mps 677 mmHg 56%
15:00 +20°C° 0 mm 3 mps 677 mmHg 55%
16:00 +20°C° 0 mm 3 mps 677 mmHg 55%
17:00 +20°C° 0 mm 3 mps 677 mmHg 54%
18:00 +18°C° 0 mm 3 mps 677 mmHg 62%
19:00 +16°C° 0 mm 2 mps 677 mmHg 70%
20:00 +14°C° 0 mm 2 mps 677 mmHg 77%
21:00 +14°C° 0 mm 2 mps 677 mmHg 79%
22:00 +14°C° 0 mm 2 mps 678 mmHg 81%
23:00 +13°C° 0 mm 2 mps 678 mmHg 83%
Show more